Tuscaloosa, AL

11:18 PM CDT on May 28, 2017 (GMT -0500)
Tuscaloosa Municipal

Weather History for KTCL - April, 2014

Change the Weather History Date:

Wednesday, April 30, 2014

  Actual Average Record
Temperature  
Mean Temperature 64 °F 67 °F  
Max Temperature 76 °F 80 °F 92 °F (1987)
Min Temperature 52 °F 55 °F 42 °F (1965)
Degree Days  
Heating Degree Days 1 2  
Month to date heating degree days 103 120  
Since 1 July heating degree days 2760 2505  
Growing Degree Days 15 (Base 50)    
Moisture  
Dew Point 58 °F    
Average Humidity 69    
Maximum Humidity 100    
Minimum Humidity 38    
Precipitation  
Precipitation 0.06 in 0.13 in 1.14 in (1976)
Month to date precipitation 10.46 4.21  
Year to date precipitation 23.46 19.42  
Sea Level Pressure  
Sea Level Pressure 29.85 in    
Wind  
Wind Speed 6 mph (West)    
Max Wind Speed 18 mph    
Max Gust Speed 26 mph    
Visibility 8 miles    
Events Rain    
T = Trace of Precipitation, MM = Missing Value Source: NWS Daily Summary

Daily Weather History Graph

Daily Weather History Graph

Search for Another Location

Airport or City:

Trip Planner

Search our weather history database for the weather conditions in past years. The results will help you decide how hot, cold, wet, or windy it might be!

Date:

Astronomy

Apr. 30, 2014 Rise Set
Actual Time 6:03 AM CDT 7:32 PM CDT
Civil Twilight 5:37 AM CDT 7:58 PM CDT
Nautical Twilight 5:05 AM CDT 8:30 PM CDT
Astronomical Twilight 4:32 AM CDT 9:03 PM CDT
Moon 7:06 AM CDT (4/30) 9:08 PM CDT (4/30)
Length of Visible Light 14h 21m
Length of Day
13h 28m
New Moon, 2% of the Moon is Illuminated
Apr 30
New Moon
May 6
First Quarter
May 14
Full
May 21
Last Quarter
May 28
New

Hourly Weather History & Observations

Time (CDT) Temp. Dew Point Humidity Pressure Visibility Wind Dir Wind Speed Gust Speed Precip Events Conditions
12:08 AM 66.2 °F 66.2 °F 100% 29.77 in 9.0 mi Calm Calm - 0.00 in   Mostly Cloudy
12:37 AM 66.2 °F 66.2 °F 100% 29.77 in 8.0 mi Calm Calm - 0.00 in   Overcast
12:53 AM 66.9 °F 66.0 °F 97% 29.76 in 8.0 mi South 3.5 mph - 0.00 in   Overcast
1:50 AM 66.2 °F 66.2 °F 100% 29.77 in 5.0 mi West 4.6 mph - N/A   Overcast
1:53 AM 66.9 °F 66.0 °F 97% 29.76 in 4.0 mi West 4.6 mph - 0.00 in Rain Light Rain
1:59 AM 66.2 °F 66.2 °F 100% 29.76 in 2.0 mi West 3.5 mph - 0.01 in Rain Light Rain
2:07 AM 66.2 °F 66.2 °F 100% 29.76 in 1.8 mi West 4.6 mph - 0.02 in Rain Light Rain
2:17 AM 66.2 °F 66.2 °F 100% 29.76 in 2.0 mi West 4.6 mph - 0.02 in Rain Light Rain
2:27 AM 66.2 °F 66.2 °F 100% 29.76 in 1.8 mi West 6.9 mph - 0.04 in Rain Light Rain
2:37 AM 64.4 °F 62.6 °F 94% 29.78 in 2.5 mi WNW 10.4 mph - 0.05 in Rain Light Rain
2:41 AM 64.4 °F 62.6 °F 94% 29.77 in 3.0 mi WNW 9.2 mph - 0.05 in Rain Light Rain
2:48 AM 64.4 °F 62.6 °F 94% 29.77 in 4.0 mi NW 6.9 mph - 0.06 in Rain Light Rain
2:53 AM 64.0 °F 62.1 °F 93% 29.77 in 5.0 mi NW 6.9 mph - 0.06 in Rain Light Rain
3:53 AM 64.9 °F 62.1 °F 90% 29.78 in 10.0 mi Calm Calm - 0.00 in   Overcast
4:53 AM 64.0 °F 62.1 °F 93% 29.80 in 10.0 mi Calm Calm - N/A   Overcast
5:53 AM 63.0 °F 61.0 °F 93% 29.81 in 10.0 mi West 3.5 mph - N/A   Overcast
6:53 AM 63.0 °F 60.1 °F 90% 29.86 in 10.0 mi Calm Calm - N/A   Overcast
7:53 AM 63.0 °F 59.0 °F 87% 29.85 in 10.0 mi Calm Calm - N/A   Overcast
8:53 AM 64.9 °F 59.0 °F 81% 29.86 in 10.0 mi SE 3.5 mph - N/A   Mostly Cloudy
10:53 AM 70.0 °F 59.0 °F 68% 29.89 in 10.0 mi SSW 3.5 mph - N/A   Mostly Cloudy
11:53 AM 73.0 °F 54.0 °F 51% 29.89 in 10.0 mi Variable 5.8 mph - N/A   Partly Cloudy
12:53 PM 75.0 °F 48.9 °F 40% 29.91 in 10.0 mi West 12.7 mph - N/A   Clear
1:53 PM 75.0 °F 51.1 °F 43% 29.90 in 10.0 mi WSW 8.1 mph - N/A   Clear
2:53 PM 75.0 °F 54.0 °F 48% 29.89 in 10.0 mi WSW 10.4 mph 18.4 mph N/A   Scattered Clouds
3:53 PM 75.0 °F 55.0 °F 50% 29.90 in 10.0 mi West 11.5 mph 20.7 mph N/A   Mostly Cloudy
4:53 PM 73.9 °F 51.1 °F 45% 29.90 in 10.0 mi West 12.7 mph 19.6 mph N/A   Clear
5:53 PM 73.0 °F 50.0 °F 44% 29.91 in 10.0 mi West 13.8 mph 20.7 mph N/A   Scattered Clouds
6:53 PM 66.9 °F 50.0 °F 54% 29.94 in 10.0 mi WNW 10.4 mph 20.7 mph N/A   Clear
7:53 PM 62.1 °F 48.0 °F 60% 29.99 in 10.0 mi NW 16.1 mph 26.5 mph N/A   Clear
8:53 PM 60.1 °F 48.0 °F 64% 30.02 in 10.0 mi NW 5.8 mph - N/A   Overcast
9:53 PM 57.9 °F 46.9 °F 67% 30.04 in 10.0 mi NW 5.8 mph - N/A   Clear
10:53 PM 55.9 °F 46.0 °F 69% 30.05 in 10.0 mi NW 8.1 mph - N/A   Clear
11:53 PM 54.0 °F 46.0 °F 75% 30.06 in 10.0 mi NW 3.5 mph - N/A   Clear